Regional Weather Roundup
Issued by NWS

Home | Current Version | Previous Version | Graphics & Text | Print | Product List | Glossary On
Versions: 1 2 3 4 5 6 7 8 9 10 11 12 13 14 15 16 17 18 19 20 21 22 23 24 25 26 27 28 29 30 31 32 33 34 35 36 37 38 39 40 41 42 43 44 45 46 47 48 49 50
000
ASUS43 KLOT 280106
RWRIL

ILLINOIS REGIONAL WEATHER ROUNDUP
NATIONAL WEATHER SERVICE CHICAGO/ROMEOVILLE IL
700 PM CST FRI FEB 27 2015

NOTE: "FAIR" INDICATES FEW OR NO CLOUDS BELOW 12,000 FEET WITH NO
SIGNIFICANT WEATHER AND/OR OBSTRUCTIONS TO VISIBILITY.

* THESE STATIONS ARE NOT UNDER NWS QUALITY CONTROL. THEY ALSO MAY NOT
  REPORT WEATHER SUCH AS PRECIPITATION OR FOG.

ILZ001-002-007-009-015-016-024-280200-
NORTHWEST ILLINOIS

CITY           SKY/WX    TMP DP  RH WIND       PRES   REMARKS
MOLINE         PTCLDY     2  -9  60 CALM      30.64R
STERLING*      CLEAR      3  -4  72 CALM      30.64R
SAVANNA*       CLEAR     -1  -8  70 CALM      30.64R
$$

ILZ003-004-008-010-011-017-018-280200-
NORTH CENTRAL ILLINOIS

CITY           SKY/WX    TMP DP  RH WIND       PRES   REMARKS
ROCKFORD       CLEAR      4  -7  60 S6        30.63R WCI  -7
FREEPORT*      CLEAR      2  -7  66 SW8       30.63R WCI -11
ROCHELLE*      CLEAR     -7 -13  76 S6        30.64R WCI -20
DE KALB*       CLEAR      1  -7  68 SW3       30.62R
PERU*          CLEAR      6  -5  62 CALM      30.65S
$$

ILZ005-006-012>014-019>023-280200-
NORTHEAST ILLINOIS

CITY           SKY/WX    TMP DP  RH WIND       PRES   REMARKS
CHICAGO-OHARE  PTCLDY     8  -5  55 SW8       30.63R WCI  -4
CHICAGO-MIDWAY CLEAR     10  -4  53 SW10      30.64R WCI  -4
AURORA         FAIR       2  -8  63 SW5       30.64R WCI  -8
LANSING*       CLEAR      5  -6  61 SW5       30.65R WCI  -4
JOLIET*        CLEAR      0  -7  73 CALM      30.66R
WAUKEGAN       CLEAR      7  -5  57 SW6       30.60R WCI  -3
DUPAGE AIRPORT CLEAR      4  -6  63 SW6       30.62R WCI  -7
KANKAKEE*      PTCLDY     0  -5  80 CALM      30.66R
WHEELING       CLEAR     10  -5  50 W6        30.64R WCI   0
MORRIS*        CLEAR      4  -3  73 CALM      30.65R
ROMEOVILLE*    CLEAR      4  -7  60 SW5       30.64S WCI  -5
NORTHERLY ISL    N/A     12  -3  51 SW12        N/A  WCI  -2
$$

LMZ740>746-280200-
SOUTHERN LAKE MICHIGAN

STATION/POSITION SKY/WX   TEMP    WIND        PRES    VSBY  WAVE
                          AIR SEA DIR/SP/G                  HT/PER
                          (F)     (DEG/KT/KT) (MB)    (MI)  (FT/S)
WAUKEGAN HARBOR            12     250/  7/ 10   N/A
HARRISON CRIB              13     220/ 15/ 18   N/A
BURNHAM HARBOR             12     220/  6/ 11   N/A
CALUMET HARBOR             11     220/  6/ 10 1036.1R
MICHIGAN CITY              12     180/ 10/ 12   N/A
$$

ILZ025>027-034>036-040-047-049-050-058-095>099-280200-
WEST-CENTRAL ILLINOIS

CITY           SKY/WX    TMP DP  RH WIND       PRES   REMARKS
QUINCY         PTCLDY     9  -3  58 NE3       30.63R
GALESBURG*     MOCLDY     1  -4  78 CALM      30.63S
MACOMB*        PTCLDY     0  -8  70 CALM      30.66S
JACKSONVILLE*  PTCLDY     9  -2  61 CALM      30.65R
PITTSFIELD*    PTCLDY    12   0  57 E6        30.64R WCI   3
$$

ILZ028>032-037-038-041>044-048-051>054-059>061-280200-
CENTRAL ILLINOIS

CITY           SKY/WX    TMP DP  RH WIND       PRES   REMARKS
PONTIAC        PTCLDY     1  -5  76 CALM      30.66R
BLOOMINGTON    CLEAR      5  -2  73 CALM      30.64R
DECATUR        PTCLDY     8  -2  63 S3        30.65R
PEORIA         PTCLDY    10  -4  53 CALM      30.65R
LACON*         CLEAR      0  -9  66 CALM      30.66R
LINCOLN*       FAIR      11   3  71 CALM      30.68S
SPRINGFIELD    FAIR      10  -2  58 SE3       30.65S
TAYLORVILLE    MOCLDY    10   3  72 CALM      30.65S
$$

ILZ033-039-045-046-055>057-062-063-280200-
EAST-CENTRAL ILLINOIS

CITY           SKY/WX    TMP DP  RH WIND       PRES   REMARKS
CHAMPAIGN      PTCLDY     4  -3  73 SE3       30.65R
DANVILLE*      CLEAR      8   1  71 N5        30.63R WCI   0
RANTOUL*       PTCLDY    11   1  66 N5        30.65R WCI   3
MATTOON        MOCLDY    10   0  63 NE3       30.64R
PARIS*         PTCLDY     7   0  74 CALM      30.67R
$$

ILZ079-100>102-280200-
SOUTHWEST ILLINOIS

CITY           SKY/WX    TMP DP  RH WIND       PRES   REMARKS
BELLEVILLE     CLOUDY    16   2  54 E6        30.65R WCI   8
CAHOKIA*       MOCLDY    17   2  51 E6        30.66R WCI   9
SPARTA*        CLOUDY    18   8  62 NE6       30.65R WCI  10
$$

ILZ064>066-069>071-074>076-080>082-084>086-088>090-092>094-280200-
SOUTH-CENTRAL ILLINOIS

CITY           SKY/WX    TMP DP  RH WIND       PRES   REMARKS
CARBONDALE     CLOUDY    21   7  54 CALM      30.64S
CAIRO*         CLOUDY    26  11  52 N6        30.62S WCI  20
EFFINGHAM*     MOCLDY    12  -1  54 CALM      30.67S
MARION         CLOUDY    21  10  63 E3        30.65S
MT. VERNON     CLOUDY    18   1  49 NE8       30.65S WCI   7
CENTRALIA*     CLOUDY    16   3  56 NE7       30.65R WCI   6
SALEM*         MOCLDY    16   4  57 CALM      30.66R
METROPOLIS*    CLOUDY    23  11  60 NE3       30.62S
$$

ILZ067-068-072-073-078-083-087-091-280200-
SOUTHEAST ILLINOIS

CITY           SKY/WX    TMP DP  RH WIND       PRES   REMARKS
LAWRENCEVILLE  MOCLDY    17   4  56 N5        30.67R WCI  10
FLORA*         MOCLDY    15   3  60 CALM      30.67R
FAIRFIELD*     CLOUDY    18   5  58 N3        30.66R
HARRISBURG*    CLOUDY    20  10  65 NE8       30.67S WCI  11
ROBINSON*      MOCLDY    14   1  58 N3        30.68R
CARMI*         CLOUDY    21  11  64 N7        30.66R WCI  13
$$

ABBREVIATIONS USED IN REMARKS
   TC - TEMPERATURE IN CELSIUS
  WCI - WIND CHILL INDEX
   HX - HEAT INDEX
  VSB - VISIBILITY
$$



USA.gov is the U.S. government's official web portal to all federal, state and local government web resources and services.